Location: New Canada
(47.1017°N, 68.5042°W)
Time: 07:24:40
(UTC+00:00)

BlueWalker 3 - Pass Details

Date: 03 December 2022
Orbit: 499 x 517 km, 53.2° (Epoch: 27 January)

Event Time Altitude Azimuth Distance (km) Brightness Sun altitude
Rises 23:45:45 0° 297° (WNW) 2,630 6.5 -29.8°
Reaches altitude 10° 23:48:01 10° 303° (WNW) 1,738 5.3 -30.2°
Enters shadow 23:49:08 18° 310° (NW) 1,325 4.5 -30.3°
